Regional Weather Roundup
Issued by NWS Newport/Morehead, NC

Current Version | Previous Version | Graphics & Text | Print | Product List | Glossary On
Versions: 1 2 3 4 5 6 7 8 9 10 11 12 13 14 15 16 17 18 19 20 21 22 23 24 25 26 27 28 29 30 31 32 33 34 35 36 37 38 39 40 41 42 43 44 45 46 47 48 49 50
906 ASUS42 KMHX 131313 RWRMHX WEATHER ROUNDUP FOR EASTERN NORTH CAROLINA NATIONAL WEATHER SERVICE NEWPORT/MOREHEAD CITY NC 800 AM EST WED DEC 13 2017 NOTE: "FAIR" INDICATES FEW OR NO CLOUDS BELOW 12,000 FEET WITH NO SIGNIFICANT WEATHER AND/OR OBSTRUCTIONS TO VISIBILITY NCZ015>017-031-032-045>047-102-103-131400- NORTH COAST CITY SKY/WX TMP DP RH WIND PRES REMARKS EDENTON PTCLDY 31 13 47 W9 29.95R ELIZABETH CITY CLEAR 27 11 51 W13 29.93R WCI 16 KITTY HAWK SUNNY 29 10 44 W16G23 29.89R WCI 18 MANTEO PTCLDY 30 9 41 NW14G28 29.92R WCI 19 $$ NCZ045>047-081-094-103-104-131400- CENTRAL COAST CITY SKY/WX TMP DP RH WIND PRES REMARKS FRISCO CLEAR 32 15 49 NW16G31 29.94R $$ NCZ095-097-098-100-101-131400- SOUTHERN COAST CITY SKY/WX TMP DP RH WIND PRES REMARKS BEAUFORT CLEAR 31 14 49 NW15 29.99R CEDAR ISLAND NOT AVBL JACKSONVILLE CLEAR 30 16 56 NW8 29.99R PINEY ISLAND N/A N/A N/A N/A W17G28 29.98R WILMINGTON MOCLDY 31 17 56 NW6 30.00R $$ NCZ011>013-027>030-043-044-078>080-089-090>093-098-131400- COASTAL PLAIN CITY SKY/WX TMP DP RH WIND PRES REMARKS AHOSKIE CLEAR 25 9 50 CALM 29.96R CLINTON CLEAR 28 15 56 CALM 30.01R ELIZABETHTOWN NOT AVBL GOLDSBORO CLEAR 30 11 44 W8 29.97R GREENVILLE CLEAR 30 10 43 CALM 30.00R HAVELOCK CLEAR 30 14 51 W9 29.99R KENANSVILLE CLEAR 28 14 54 NW3 29.98R KINSTON NOT AVBL NEW BERN CLEAR 28 14 55 NW6 30.00R RICHLANDS CLEAR 30 16 56 CALM 29.99R ROCKY MOUNT CLEAR 27 11 51 W5 29.98R WASHINGTON CLEAR 29 11 46 W7 29.97R WHITEVILLE CLEAR 28 20 72 CALM 30.00R $$ AMZ130-135-150-152-154-156-158-170-250-252-270-ANZ085-086-088-633-658-670-131400- MARINE OBSERVATIONS STATION/POSITION TIME TEMP WIND PRES WAVE SWELL AIR SEA DIR/SP/G HT/PER HT/PER (UTC) (F) (DEG/KT/KT) (MB) (FT/S) (FT/S) CHESAPEAKE LIGHT NOT AVBL 64 E VA BEACH 1250 34 58 300/ 27/ 35 1010.0 11/ 8 DUCK 1242 30 54 290/ 19/ 26 1012.2 2 E DUCK 1300 56 N/A 4/ 6 OREGON INLET 1242 31 45 280/ 19/ 25 1012.7 13E OREGON INLT 1248 58 N/A 7/ 8 5/ 8 HATTERAS CG 1242 33 51 320/ 27/ 32 1013.3 DIAMOND BUOY 1250 37 74 300/ 25/ 33 1013.2 7/ 6 2/ 9 CAPE LOOKOUT 1200 320/ 19/ 23 1014.4 BEAUFORT LAB 1242 31 51 320/ 9/ 14 1015.2 30 SE NEW RVR IN 1208 39 63 330/ 21/ 27 1014.1 30 SE NEW RVR IN 1300 63 N/A 6/ 5 27 SE WRIGHTSVLE 1208 40 65 330/ 25/ 35 1014.5 5 SE WRIGHTSVLE 1208 36 57 340/ 17/ 23 1014.3 225 S CAPE HAT 1150 58 75 320/ 27/ 33 1010.6 13/10 8/10 41 SE CHARLESTON 1250 45 73 330/ 17/ 25 1016.3 6/ 6 $$

USA.gov is the U.S. government's official web portal to all federal, state and local government web resources and services.